RH
10 10 4 3 3 6 5 4 4 9 8 8 11 14 19 23 23 34 39 40 43 49 51 56 37 34 26 19 11 12 8 8 12 11 8 5 4 5 9 27 95 89 99 87
12 12 10 6 4 3 3 4 4 9 8 14 16 10 11 11 19 30 36 42 39 49 59 56 40 41 44 42 39 23 13 8 8 8 8 6 4 4 7 18 55 89 99 100
13 15 15 13 11 8 6 5 9 7 7 13 18 10 7 9 15 32 35 40 38 52 58 50 45 48 52 56 53 39 21 12 13 9 8 8 6 4 6 20 26 90 86 100
15 15 15 16 16 16 15 11 8 13 10 22 25 27 8 10 12 25 40 40 45 51 54 44 47 52 60 58 60 62 42 16 15 16 18 14 8 5 5 16 24 57 96 79
16 17 16 18 20 21 21 17 11 18 16 22 26 40 8 12 15 23 27 35 50 52 51 50 53 75 66 57 76 74 52 32 13 16 20 29 26 16 9 12 23 36 58 76
17 17 18 20 22 23 24 20 14 20 21 34 28 37 9 15 15 18 21 32 51 53 54 54 68 70 67 83 90 71 59 41 23 15 15 24 38 31 21 13 20 23 38 52
19 18 19 21 24 25 26 23 12 16 35 36 26 32 7 9 14 22 24 40 52 59 62 66 70 79 96 90 91 80 55 50 38 19 16 15 36 39 31 24 18 23 21 35
20 20 21 22 24 28 29 30 19 29 47 34 29 30 10 11 16 24 30 38 58 66 69 71 88 93 96 92 82 65 65 53 43 30 20 15 21 38 39 31 23 23 23 22
23 21 22 23 24 28 30 33 33 33 37 51 32 20 17 11 20 22 29 44 56 67 71 77 87 88 75 76 72 71 68 66 56 40 26 19 20 33 40 40 34 21 24 21
25 23 23 25 25 30 33 33 36 38 54 62 37 32 26 13 30 32 33 38 43 58 65 66 73 83 90 85 77 76 81 75 65 44 30 23 25 28 36 41 40 32 21 23
25 27 25 26 27 31 34 34 38 44 44 57 81 42 20 24 34 34 25 23 34 47 56 62 74 70 70 74 84 89 86 74 61 43 31 25 28 23 32 42 40 37 30 22
26 28 26 28 29 32 35 36 41 50 52 50 51 44 29 31 35 26 13 15 24 28 46 59 68 68 70 77 81 82 76 76 60 38 28 29 22 21 33 45 42 39 35 27
26 28 28 30 32 33 35 38 44 50 57 54 56 36 32 34 34 18 6 6 11 14 27 39 44 40 46 50 58 67 62 57 41 33 31 25 17 19 30 46 49 43 38 31
26 28 29 28 30 33 35 38 45 56 62 54 44 36 34 36 20 7 2 3 4 6 10 15 26 27 28 27 39 41 40 34 28 23 20 14 16 36 48 51 52 50 42 35
27 28 29 30 32 33 32 35 39 41 39 53 34 38 37 35 10 3 1 1 2 2 4 4 7 12 16 17 24 28 28 25 20 17 15 14 20 42 54 65 66 60 48 40
31 32 33 31 31 34 36 30 30 32 34 36 38 38 39 24 7 2 1 1 1 1 2 2 2 3 7 12 14 21 25 22 20 18 16 15 16 27 55 71 74 69 63 56
32 36 36 34 36 36 30 29 32 36 38 39 38 39 36 26 9 3 1 1 1 1 1 2 2 2 3 6 8 12 20 21 20 20 19 20 19 28 41 67 69 70 68 66
33 40 41 40 39 53 28 32 34 39 37 36 42 41 39 33 23 10 3 1 1 1 1 1 1 1 1 2 5 6 11 18 19 20 20 21 21 23 26 63 58 67 65 65
41 42 43 47 50 38 30 32 36 41 34 36 42 42 41 40 36 24 10 1 1 1 1 1 1 1 1 1 1 5 7 11 14 19 20 20 20 21 23 23 50 42 34 55
38 42 46 54 55 60 34 35 37 42 34 40 42 44 45 43 40 34 22 6 1 1 1 1 1 1 1 1 1 2 6 10 10 15 18 19 20 20 22 23 21 20 30 22
40 47 47 54 60 38 34 35 41 41 38 41 42 46 47 46 44 43 42 27 8 1 1 1 1 1 1 1 1 1 2 4 9 12 15 18 20 18 19 22 22 22 21 16
38 41 43 50 59 41 35 38 40 41 40 39 43 49 49 49 48 47 46 46 26 7 1 1 1 1 1 2 1 1 1 2 4 10 13 16 20 18 18 18 20 21 23 22
46 38 37 38 34 34 36 38 40 40 37 39 45 50 51 51 51 50 49 50 48 25 6 1 1 1 1 2 2 2 1 1 2 4 10 13 16 16 17 17 17 18 19 20
44 44 42 40 31 36 38 38 39 39 40 42 45 47 48 49 52 53 53 52 54 50 26 5 1 1 1 1 2 2 2 1 1 2 3 7 11 13 14 14 15 15 16 17
45 45 41 38 32 36 36 37 40 40 41 41 44 44 47 48 52 54 57 56 55 58 54 27 7 1 1 1 1 2 2 2 1 1 1 2 3 6 7 9 12 13 14 13
32 30 37 36 36 38 38 38 42 40 41 43 46 48 48 48 48 51 58 59 59 58 62 59 36 9 2 1 1 2 2 2 2 2 1 1 2 2 2 2 2 2 2 2
Wind_Speed
15 18 30 23 21 16 12 11 10 10 12 15 17 19 19 20 20 21 22 24 27 28 29 31 26 24 27 27 21 21 22 23 27 27 27 28 25 28 33 31 34 29 30 29
22 33 25 20 19 16 12 11 11 10 13 15 18 21 17 18 17 18 22 25 27 28 30 30 28 27 29 33 35 23 21 23 26 28 28 29 25 26 31 25 36 31 31 26
23 21 17 15 14 15 19 21 11 11 14 14 18 14 20 16 18 18 22 25 28 29 30 29 29 31 33 33 36 37 25 21 22 25 26 26 28 27 31 25 25 35 37 25
16 15 12 15 18 18 23 25 14 10 12 8 12 10 11 13 20 20 23 25 27 28 29 29 29 28 30 34 37 39 34 26 18 21 23 24 25 26 29 29 28 30 38 25
12 16 10 17 20 18 19 26 13 10 11 13 10 8 10 15 21 23 22 25 25 25 28 29 26 30 30 30 38 38 35 31 23 17 19 20 19 22 26 30 29 34 35 32
11 15 14 18 19 15 19 24 7 9 12 4 4 3 13 10 21 23 25 24 22 24 25 26 29 30 26 33 34 35 36 31 25 20 17 17 18 18 20 28 32 31 36 37
10 11 16 18 20 12 17 23 4 3 2 5 6 12 13 18 22 26 32 23 21 24 27 28 30 25 31 29 31 34 32 30 26 22 17 15 16 15 16 20 29 32 31 34
10 6 14 17 18 15 15 18 5 3 2 10 21 8 11 18 25 27 34 28 24 25 26 28 27 28 30 31 33 28 30 26 22 20 17 14 14 13 13 15 22 30 31 29
10 5 10 14 16 15 12 13 8 3 9 6 7 14 23 21 30 35 35 31 25 22 24 26 29 30 30 29 26 28 24 22 20 18 17 12 11 12 11 12 15 26 30 32
11 6 9 13 10 12 11 11 6 7 3 5 10 13 15 23 37 38 37 35 28 27 24 23 25 26 26 24 23 22 22 19 18 17 16 12 7 9 10 11 13 16 27 32
15 8 9 13 7 12 10 7 6 7 2 3 3 16 14 33 39 40 39 34 32 30 27 23 21 20 20 18 19 18 18 17 17 14 13 9 4 6 8 10 11 13 19 28
12 7 12 14 11 11 11 11 11 4 2 8 6 18 25 38 39 39 36 34 32 30 26 22 18 16 15 16 15 16 17 17 16 13 12 4 3 4 6 8 10 11 14 21
13 8 10 7 6 11 14 18 16 14 13 15 3 20 36 36 36 35 33 31 31 28 24 19 16 13 13 14 17 21 19 16 13 8 5 3 3 3 4 7 9 10 12 15
13 12 11 10 18 21 27 25 22 17 11 14 27 36 33 33 31 29 28 29 29 28 25 20 15 13 13 16 19 19 19 18 15 11 8 6 3 3 4 6 8 10 11 11
13 13 17 19 23 21 18 18 19 24 26 24 33 37 31 29 29 26 25 26 27 28 26 25 20 15 14 15 16 16 16 15 12 10 8 9 5 7 9 7 6 7 9 9
18 11 20 26 10 17 24 12 15 19 22 26 26 29 23 25 24 22 23 24 26 27 27 26 24 17 13 13 14 14 14 13 12 10 9 9 7 8 11 9 5 6 7 8
17 12 18 8 19 24 9 5 10 14 17 18 21 22 22 22 21 20 21 22 24 25 26 26 25 21 14 12 12 13 13 13 12 11 10 10 10 9 10 10 7 7 7 7
15 15 13 14 13 4 5 14 13 19 17 12 18 20 21 21 20 20 19 20 22 23 24 26 26 24 21 15 12 12 12 12 12 11 10 9 10 10 10 8 8 7 7 8
13 13 8 6 13 22 7 6 12 19 16 10 21 20 21 21 21 20 20 19 20 21 22 24 25 26 25 22 16 12 10 12 12 10 10 8 7 8 9 9 8 7 7 7
13 14 12 9 4 6 8 16 16 20 11 18 22 22 21 22 23 22 21 19 18 19 19 21 23 25 26 26 24 17 12 11 11 10 10 9 8 7 6 6 8 8 8 8
13 14 19 19 13 13 15 14 17 9 12 24 22 21 21 21 22 21 21 20 19 17 18 19 20 22 24 26 26 24 18 13 12 10 10 9 9 8 7 5 5 6 7 7
11 9 10 9 11 9 18 18 18 24 24 21 20 20 20 20 21 22 21 21 20 18 17 17 18 19 21 23 25 25 23 18 13 9 10 10 11 10 8 8 6 6 6 7
17 16 14 15 20 29 25 21 26 25 21 18 19 19 19 19 21 21 21 21 20 19 17 16 16 17 18 19 20 23 23 22 17 12 10 10 11 13 11 10 10 8 6 6
24 23 27 31 26 22 26 23 20 20 19 17 17 17 18 19 20 20 21 20 20 19 19 17 16 15 16 17 17 18 20 20 18 14 11 9 9 11 12 11 10 10 9 8
31 31 34 36 26 17 18 18 18 18 17 16 17 16 17 19 19 20 20 21 20 19 19 19 17 16 16 16 16 15 15 15 16 15 12 9 7 7 8 8 9 9 8 8
37 31 29 31 20 23 20 20 18 18 17 17 18 16 17 19 19 21 20 21 20 19 19 20 20 18 17 16 16 15 14 14 13 11 10 7 5 4 3 3 3 4 4 4
Wind_Direction
71 73 56 48 46 47 35 24 18 10 352 343 342 339 339 332 332 328 326 326 325 319 319 324 325 334 339 334 317 297 291 282 282 281 278 279 268 258 259 260 231 214 219 231
49 53 49 42 40 28 18 352 350 348 357 347 337 334 337 332 321 319 320 320 326 321 317 320 325 328 333 334 340 326 291 280 276 278 279 280 273 255 252 247 241 224 212 224
49 63 49 32 25 20 13 5 332 334 344 335 332 324 341 333 324 309 320 324 325 317 317 322 324 326 328 331 331 332 328 308 272 267 268 272 277 262 243 231 246 240 210 208
46 55 50 28 17 14 11 357 337 307 328 339 325 300 328 327 338 322 317 320 319 315 313 318 316 317 324 323 328 329 328 328 307 272 267 268 267 260 248 228 223 229 223 219
48 38 36 19 19 15 5 352 332 294 305 304 290 290 305 314 336 335 330 316 313 312 311 312 307 318 317 319 325 324 324 327 320 304 281 278 268 260 243 229 214 224 232 226
32 29 23 13 12 10 360 352 327 292 294 289 226 302 295 325 331 333 330 334 323 318 319 311 311 315 314 314 320 319 321 323 321 310 303 289 276 261 248 230 218 215 227 227
13 12 11 7 2 4 4 12 352 344 354 241 238 297 299 330 330 336 346 338 326 322 323 319 316 308 319 317 319 318 318 320 319 309 305 304 280 269 258 241 224 216 220 222
6 2 0 355 358 352 3 25 58 277 296 294 289 244 322 332 349 342 348 345 333 323 321 317 310 314 315 318 318 320 319 320 317 311 306 307 282 274 260 249 235 221 215 219
355 328 342 351 351 357 351 2 8 256 272 293 279 296 333 344 351 351 347 346 341 322 313 309 309 311 313 315 316 318 320 319 316 308 303 310 284 273 263 260 243 227 220 217
348 318 325 343 343 345 346 351 354 353 10 310 296 294 308 346 350 348 344 345 343 337 333 319 317 314 316 317 318 319 318 315 313 309 306 315 278 272 267 261 253 235 225 220
344 334 327 333 324 333 335 339 336 325 267 194 304 302 331 348 345 341 339 341 340 339 333 328 318 317 320 320 319 321 325 320 315 314 307 313 286 281 273 268 261 247 231 224
340 311 319 319 312 316 322 319 317 312 277 245 253 282 342 342 341 333 337 339 340 340 336 339 328 323 319 323 331 343 345 340 327 318 310 341 333 299 282 282 270 261 247 231
336 319 322 319 313 321 317 320 312 297 286 262 236 293 330 337 333 330 335 339 342 343 347 346 340 339 343 350 358 358 356 358 2 357 352 21 340 295 285 311 290 271 261 246
322 310 302 282 302 302 298 301 300 281 262 273 277 309 340 333 327 332 337 341 344 348 356 359 359 356 354 358 5 0 6 12 21 22 10 355 8 356 334 312 297 280 269 255
315 308 314 318 313 296 301 295 287 278 284 270 306 308 333 330 329 333 338 343 347 352 359 6 7 358 355 359 357 1 5 9 14 15 3 357 5 8 357 332 295 281 274 270
314 301 314 325 318 309 306 273 274 282 283 287 305 316 329 330 330 334 338 343 349 353 0 7 9 4 349 349 349 352 353 355 3 4 5 353 338 354 8 3 331 308 305 293
300 305 316 304 321 315 297 278 314 311 310 300 307 330 335 338 335 337 340 344 348 352 358 5 8 8 356 342 339 340 342 344 349 358 0 353 343 350 8 13 1 341 336 317
276 293 301 297 327 340 295 311 311 317 317 298 331 337 338 339 345 340 341 343 345 351 355 3 6 8 9 356 329 326 327 330 344 352 358 357 346 346 357 2 3 353 349 332
252 263 281 282 304 300 286 312 312 321 332 310 337 336 337 340 348 345 344 342 343 347 352 359 4 6 8 5 350 324 314 318 331 342 344 349 343 350 348 346 340 343 337 332
248 248 246 279 268 251 289 309 311 320 313 334 334 334 335 337 345 348 346 340 340 342 348 356 359 1 4 7 7 353 326 304 312 325 326 337 332 335 346 335 334 328 329 325
242 250 250 254 259 281 302 299 313 304 312 323 323 328 333 333 335 341 342 341 339 340 344 349 353 355 359 3 5 6 359 338 313 310 313 321 320 322 321 315 316 329 332 330
265 263 245 226 233 278 317 304 297 306 309 315 316 322 330 329 330 335 338 340 339 335 338 341 345 349 352 357 359 3 3 359 347 318 301 306 306 307 312 309 309 312 320 327
258 261 258 249 274 296 304 301 304 302 305 306 311 316 326 329 329 330 330 333 334 333 330 333 336 340 342 348 351 356 0 2 0 346 314 303 300 303 304 301 303 302 308 313
274 277 273 284 304 302 296 298 294 297 304 296 304 314 322 326 325 325 324 324 328 330 330 325 326 330 331 335 339 346 352 355 0 2 351 332 310 305 301 298 295 297 299 299
277 278 282 291 304 296 301 299 291 295 296 292 298 308 317 324 326 323 319 318 321 327 327 322 318 318 318 321 324 330 336 342 346 353 357 357 347 322 314 305 298 296 297 295
280 288 286 287 294 275 291 291 283 291 294 293 298 307 313 320 323 319 315 315 316 319 322 320 316 311 307 308 309 311 315 318 322 329 336 354 11 40 53 56 67 80 85 77